GFSCGP_sfc_thetae_000.txt.gz
Theta_e
299 294 289 291 294 295 292 290 289 291 296 296 293 292 296 295 293 294 295 296 297 299 300 301 301 301 300 300 301 301 301 301 301 299 299 298 298 300 300 302 308 307 306 306
295 291 296 298 297 295 293 291 290 293 297 295 294 293 292 294 293 295 296 296 297 298 300 301 301 298 300 300 300 300 301 301 301 299 299 299 298 299 300 301 301 306 305 304
292 295 299 297 295 293 291 291 290 291 295 294 294 291 291 295 296 297 297 297 298 298 299 300 302 299 299 300 300 301 301 301 301 301 299 298 298 298 298 299 299 302 304 304
295 298 295 295 294 293 289 295 295 293 291 286 293 284 290 292 293 295 296 296 297 299 300 299 299 299 300 301 300 300 302 301 302 301 299 298 300 299 301 301 298 300 303 303
293 293 293 293 293 295 292 296 295 294 290 288 290 286 289 292 291 294 294 297 296 297 298 298 297 299 300 301 301 302 302 302 303 303 301 299 298 300 301 297 297 297 299 301
295 297 295 294 298 298 299 296 295 294 290 282 289 286 287 290 293 294 296 297 298 297 297 300 300 301 301 302 302 303 303 303 304 303 302 300 298 300 298 299 298 298 296 296
296 295 297 299 295 298 295 290 281 280 279 280 291 287 287 292 296 297 297 296 296 298 298 298 299 300 301 301 301 302 302 303 305 302 302 302 301 300 299 299 299 298 296 295
289 287 296 299 295 292 293 291 281 277 276 280 290 284 289 296 297 297 297 298 299 297 299 299 300 301 301 301 301 302 303 301 302 301 301 300 300 300 299 297 296 294 295 294
288 290 299 299 299 297 294 288 294 285 277 278 284 290 294 296 298 298 297 298 298 298 298 299 301 301 300 299 300 300 300 301 301 300 298 295 294 295 292 291 293 293 293 294
295 289 297 299 300 298 295 296 286 284 275 278 284 285 287 293 296 298 296 295 297 297 298 300 300 300 300 299 300 301 300 300 300 295 295 293 292 292 292 292 291 291 293 295
296 293 291 295 294 292 291 289 291 292 285 280 278 283 293 295 297 297 298 297 295 297 297 298 301 302 303 302 302 300 299 298 294 293 293 292 291 291 290 290 291 291 292 294
297 289 283 290 296 298 295 292 292 281 283 282 281 286 298 297 299 297 296 297 298 296 297 298 299 300 300 299 298 299 298 294 293 293 292 291 290 289 288 289 290 291 291 292
295 286 280 285 290 295 293 294 293 290 283 282 275 282 298 298 296 297 296 296 297 297 298 298 298 299 299 298 298 299 298 293 293 292 290 288 288 287 288 288 289 290 290 290
298 291 286 281 285 291 289 292 293 288 277 283 286 287 292 295 295 296 296 296 296 297 299 298 298 298 298 298 298 298 293 293 293 292 288 287 287 287 287 288 288 289 289 289
295 286 289 290 292 293 293 292 292 289 288 282 286 287 291 292 293 295 296 298 298 298 298 297 297 297 297 297 297 294 294 294 293 289 289 289 290 290 289 288 289 291 290 289
296 284 286 288 292 292 289 291 291 290 290 288 289 288 294 296 296 296 296 297 296 297 298 298 298 298 297 297 295 294 294 294 294 294 294 294 293 293 292 292 292 291 289 288
290 284 281 284 287 286 283 286 288 289 291 289 283 288 295 294 296 296 297 297 297 296 296 296 298 297 296 294 293 292 293 294 295 295 295 294 294 293 292 292 291 287 285 283
285 282 282 281 284 278 289 293 293 290 291 292 293 293 295 296 297 298 299 298 296 296 297 297 297 295 294 293 292 292 293 293 293 293 293 293 292 290 289 286 285 282 282 281
294 286 282 280 282 285 289 291 288 286 288 294 293 295 296 296 295 294 296 298 299 298 298 297 294 293 292 291 291 291 291 292 290 286 286 286 286 286 285 283 281 281 280 279
290 285 280 282 279 278 284 291 296 295 283 295 295 294 294 293 289 293 298 298 297 298 295 292 292 291 290 291 289 285 285 285 285 286 286 287 286 284 283 281 280 280 278 279
279 283 278 273 276 280 289 293 296 279 283 292 295 296 295 294 295 298 298 296 296 292 292 292 291 290 291 293 290 284 284 284 286 287 286 285 285 283 282 280 279 278 278 277
282 278 281 279 280 279 294 295 287 291 292 295 295 296 296 296 295 295 295 295 293 290 290 291 290 290 292 287 285 283 282 286 286 285 284 284 283 282 281 279 278 278 277 273
285 287 283 284 283 291 295 296 296 298 296 295 296 298 296 294 294 294 291 290 290 289 288 289 289 290 289 285 285 283 284 285 284 283 282 282 281 280 279 278 277 276 275 271
291 294 286 287 291 293 295 298 299 297 296 299 299 298 297 294 294 291 292 290 289 288 287 288 290 288 287 285 284 283 284 284 282 281 281 281 279 279 278 278 277 276 271 270
293 294 291 290 293 295 296 296 298 299 300 297 297 296 295 294 293 291 289 289 288 287 287 289 290 289 286 284 283 284 283 283 282 281 281 280 279 277 277 277 277 276 275 274
294 292 289 288 295 294 295 298 298 296 294 294 293 292 292 292 291 291 289 288 287 287 289 289 289 285 285 284 283 284 283 282 281 280 279 276 275 274 276 276 276 280 280 280

GFSCGP_sfc_thetae_003.txt.gz
Theta_e
297 292 288 289 291 293 291 288 288 290 294 295 292 292 295 293 292 292 291 294 296 298 298 298 299 298 299 299 300 299 299 299 300 299 298 298 298 298 300 300 303 307 308 306
294 290 294 296 295 293 292 289 288 292 295 293 293 292 291 293 292 293 294 294 296 297 298 298 298 296 298 298 299 299 300 300 299 298 298 298 297 298 298 299 300 305 307 307
291 293 297 295 292 291 289 289 288 290 293 292 292 290 290 294 295 296 296 295 296 297 298 298 299 297 297 297 298 299 299 299 300 300 298 297 297 297 297 298 298 300 304 307
293 295 294 293 292 291 287 292 292 292 290 285 290 283 290 290 291 294 294 294 294 296 297 298 299 298 298 298 298 299 299 299 300 300 299 297 298 298 301 301 300 300 300 303
292 291 292 292 292 294 292 295 293 292 289 287 289 284 289 291 289 291 292 295 295 296 296 297 298 297 297 298 298 299 301 302 302 301 301 300 298 300 301 301 297 298 298 300
294 295 294 293 296 296 297 294 292 291 288 282 286 285 285 288 291 292 295 295 296 296 297 299 299 300 300 300 300 301 301 302 303 302 302 300 298 299 298 299 297 298 296 296
295 295 297 298 294 297 294 289 280 279 278 279 289 285 286 292 294 295 295 296 296 295 296 297 297 299 300 299 299 300 300 300 300 300 300 300 299 298 297 298 298 296 293 292
288 285 295 299 294 291 291 289 280 276 275 279 288 283 288 294 296 297 298 296 297 298 298 298 300 299 298 298 299 299 299 299 300 299 298 297 296 296 297 296 294 293 291 290
287 289 297 298 298 295 292 287 292 283 276 277 283 289 292 295 296 296 295 296 295 296 297 297 297 298 298 298 299 299 299 299 299 297 294 294 294 294 294 291 291 290 291 293
293 287 295 297 298 297 294 294 285 283 274 276 283 284 286 291 294 295 294 293 294 294 295 297 298 298 299 299 298 298 298 298 297 292 293 294 293 292 291 290 290 290 292 294
293 291 289 293 292 290 290 288 289 289 284 278 275 282 292 292 294 294 293 294 294 294 295 297 298 299 299 299 298 297 297 297 294 292 292 292 293 290 289 289 289 290 293 294
294 288 282 288 294 296 294 291 289 283 281 281 277 283 294 295 295 295 293 296 296 296 297 298 298 298 298 298 297 297 296 295 292 293 292 293 291 289 287 288 289 290 291 292
294 285 280 284 289 291 290 292 291 287 282 281 276 281 294 296 294 295 294 295 296 296 298 299 298 299 299 298 297 297 297 292 292 292 292 290 287 286 286 288 290 290 290 290
297 289 284 280 284 289 288 290 291 288 276 281 283 287 292 292 292 294 295 295 296 296 298 298 298 297 297 297 297 296 293 293 292 291 288 285 285 285 286 287 289 290 291 289
294 286 287 288 290 291 291 290 291 288 287 284 286 286 289 291 293 294 296 296 296 297 297 297 298 297 296 296 295 294 293 293 293 291 288 288 290 290 288 291 292 291 291 291
294 283 285 285 290 290 288 290 289 290 289 287 287 286 291 294 295 295 296 296 295 295 296 297 296 296 296 296 294 293 292 292 293 291 292 294 294 293 293 293 292 291 292 291
289 283 281 278 286 284 280 284 287 288 288 288 283 287 292 293 294 295 295 295 295 295 295 295 295 295 295 293 292 291 291 292 291 291 293 294 293 293 292 292 292 291 286 284
285 282 281 277 284 275 288 291 291 289 290 290 290 292 293 294 296 296 297 295 294 296 296 295 296 294 293 292 291 290 290 290 291 290 287 288 289 288 286 285 284 282 282 281
290 286 283 282 281 283 288 290 287 286 286 292 292 293 294 296 293 292 296 294 294 294 295 296 294 292 291 289 288 286 285 286 286 286 286 287 286 284 283 282 281 281 279 279
288 283 280 281 279 278 285 289 292 293 283 293 293 293 294 293 288 292 296 295 295 295 296 293 292 291 289 290 286 287 285 285 284 287 286 285 284 283 281 280 279 279 279 279
279 282 280 281 279 280 288 291 293 282 284 292 294 295 293 291 295 296 295 294 295 295 293 292 290 289 289 289 286 283 283 283 285 285 285 284 284 283 281 279 279 278 278 277
282 280 277 280 278 277 292 294 287 292 293 293 293 293 293 295 294 294 294 294 294 290 290 289 288 288 289 285 284 282 281 283 283 284 283 282 282 281 280 278 278 277 276 274
284 287 282 285 284 291 293 296 297 297 294 292 293 297 297 294 293 292 292 293 291 289 287 287 286 288 289 285 284 283 283 283 282 282 281 281 281 280 279 277 277 276 275 272
291 294 285 287 292 293 296 298 300 297 295 299 296 294 291 289 290 291 292 291 289 288 286 285 287 287 287 289 285 284 284 283 282 281 281 280 279 278 277 277 277 276 272 271
293 293 290 291 295 296 296 297 297 299 296 293 294 293 292 291 290 291 290 289 288 286 286 287 287 287 287 286 282 283 282 282 281 281 281 279 278 277 277 277 277 276 275 273
295 292 289 289 296 295 296 297 296 294 293 293 293 292 293 291 290 290 289 288 286 285 286 288 287 286 284 282 281 282 283 281 280 280 280 276 274 274 276 275 276 279 279 279

GFSCGP_sfc_thetae_006.txt.gz
Theta_e
296 291 287 288 290 291 289 287 286 289 292 293 290 290 291 291 291 291 290 292 295 296 296 296 297 298 299 300 299 299 300 300 299 299 299 298 299 298 299 300 302 303 306 307
293 288 292 294 293 291 290 287 286 290 293 292 291 290 290 293 291 291 292 294 295 295 296 297 297 296 298 299 299 298 298 298 297 297 297 297 296 297 297 298 299 300 302 305
290 291 295 293 291 291 289 287 286 288 291 291 289 287 290 292 294 294 294 293 295 295 296 296 297 296 296 297 296 297 297 297 298 298 297 297 297 297 297 299 298 300 300 302
292 293 293 293 291 290 287 291 291 290 288 284 289 282 289 290 290 292 293 293 292 294 296 297 297 295 297 297 297 298 299 299 301 300 299 298 296 296 299 299 299 300 300 299
289 290 292 292 291 292 291 294 291 290 287 286 288 283 287 290 288 289 291 293 293 295 295 294 295 297 298 297 298 299 300 301 300 300 299 299 298 298 299 299 298 299 299 297
293 295 293 292 294 294 296 292 290 289 287 281 285 284 284 287 289 291 293 294 295 296 296 297 298 299 298 298 298 299 299 300 300 299 298 297 295 295 296 297 296 297 297 295
293 293 296 296 293 296 293 286 279 278 277 278 287 284 285 291 292 293 294 294 295 295 295 295 297 297 298 298 298 299 298 299 299 298 296 294 294 294 294 295 296 295 293 290
286 283 293 297 292 289 290 288 279 275 274 278 286 282 287 294 294 295 295 295 295 296 297 297 298 297 297 298 298 298 298 298 298 297 294 294 295 294 295 295 294 292 290 290
286 287 296 296 296 294 290 286 290 282 275 276 282 287 292 293 295 296 294 294 293 294 295 296 298 299 298 299 299 298 297 297 298 296 292 293 294 294 295 294 290 290 290 293
291 286 292 295 296 296 293 293 284 282 273 275 281 282 284 290 292 293 292 292 293 295 296 298 298 299 299 298 298 298 297 297 297 293 293 294 293 294 294 291 289 289 290 293
292 289 287 291 290 288 290 287 287 287 283 275 274 281 290 290 291 291 292 294 294 295 295 296 297 298 298 298 297 297 296 296 296 292 292 292 294 293 291 288 288 289 291 292
293 287 281 286 292 294 291 289 287 279 279 280 277 280 292 293 293 293 293 295 295 296 296 296 297 297 297 297 297 297 296 296 293 293 292 292 290 288 287 287 288 289 289 289
292 285 279 282 287 290 289 290 289 285 282 281 275 280 292 293 293 293 293 294 295 296 296 297 298 298 297 297 297 297 296 294 293 293 291 288 286 284 285 286 288 289 289 290
296 287 283 279 283 286 285 289 289 287 282 281 282 286 291 293 291 293 294 295 295 296 296 296 296 297 297 297 296 296 294 293 293 292 289 287 286 285 286 289 289 290 290 291
293 285 286 287 289 288 289 288 289 286 286 284 287 285 289 291 290 293 295 295 296 296 296 295 296 298 297 297 297 294 293 293 292 291 291 289 292 291 290 290 290 291 291 291
291 283 284 283 287 287 285 288 288 288 288 287 288 287 292 291 292 294 295 295 295 294 294 296 295 295 296 296 293 292 292 292 292 291 291 293 294 294 292 292 291 291 291 291
288 282 281 277 284 283 279 283 286 287 288 287 283 288 289 290 293 293 294 294 294 293 293 292 292 294 295 293 291 291 291 291 291 291 289 289 290 291 290 291 290 288 285 283
284 281 281 277 284 276 286 290 290 288 288 289 288 288 291 292 293 294 295 293 291 292 293 293 294 294 292 292 290 288 287 287 286 286 287 288 287 285 284 283 282 281 281 280
289 285 281 282 281 283 288 289 286 285 285 289 288 291 292 293 291 291 293 293 294 294 294 294 294 292 290 289 286 284 284 284 285 286 286 286 284 282 282 281 280 280 279 279
288 282 279 281 279 277 285 288 291 292 281 290 294 294 294 292 286 292 294 294 294 294 294 293 292 290 289 289 287 286 285 284 283 284 283 283 282 281 279 278 278 279 278 279
280 282 284 284 280 281 288 290 293 282 284 292 293 295 292 289 292 291 292 292 292 293 293 292 290 287 289 289 286 284 282 282 283 283 282 282 281 280 279 278 278 277 277 277
280 277 275 279 279 276 290 291 286 291 294 295 295 293 294 293 292 291 291 291 291 291 290 290 287 287 289 289 284 283 282 283 283 282 281 280 280 280 279 277 277 277 275 273
282 285 284 286 283 290 293 295 296 296 295 293 292 293 292 290 289 290 289 290 290 291 289 288 285 286 288 287 286 285 286 283 282 281 280 280 280 279 279 277 276 276 274 271
290 293 288 288 291 294 297 298 297 296 296 294 293 292 292 290 291 289 289 289 289 288 287 285 285 286 286 287 287 283 282 282 281 281 280 280 279 278 277 277 277 276 272 271
291 293 290 289 295 295 295 294 295 294 295 294 294 293 291 290 288 288 288 287 287 287 285 285 286 286 285 285 284 282 281 281 280 281 281 279 278 277 277 277 276 276 275 272
293 291 286 289 294 295 296 296 297 294 293 293 292 290 291 290 287 288 287 287 286 286 286 285 286 285 285 284 282 281 281 280 280 280 279 275 274 274 276 275 275 279 278 279

GFSCGP_sfc_thetae_009.txt.gz
Theta_e
300 297 293 295 296 295 294 292 292 295 297 298 296 296 297 298 298 297 298 300 302 304 303 304 305 307 308 311 313 314 314 314 312 310 310 310 310 310 310 311 311 311 312 313
298 293 296 296 296 295 294 292 292 295 296 297 296 296 296 298 297 298 300 301 302 303 303 303 305 307 308 310 310 307 306 307 307 307 308 308 308 309 308 309 311 311 310 311
294 295 297 296 295 295 294 292 292 292 295 296 295 294 295 297 298 299 300 301 302 304 304 304 305 306 306 306 305 305 306 307 308 309 309 309 309 309 309 308 308 309 310 310
295 297 297 296 294 295 292 295 295 293 293 291 294 289 294 295 296 298 299 300 302 303 304 304 305 305 305 306 308 309 309 309 308 309 307 306 304 303 305 306 306 307 309 309
293 296 296 295 295 297 295 297 295 294 293 292 293 291 293 295 294 296 299 300 302 302 303 302 304 305 305 307 307 308 308 308 308 307 305 305 304 305 305 305 304 305 306 307
296 300 298 297 298 298 298 296 293 293 292 288 290 290 291 294 295 296 299 301 301 301 302 303 305 305 306 307 308 308 308 307 308 307 305 304 304 303 303 304 303 304 304 304
296 296 300 299 297 299 298 292 287 287 287 286 290 289 291 296 296 297 298 299 301 303 303 303 304 304 305 306 306 307 306 306 306 306 303 303 304 304 303 302 302 301 301 301
290 289 296 300 297 294 294 293 287 280 283 285 290 287 291 297 299 299 299 300 300 301 303 303 303 304 304 305 306 306 305 305 306 306 303 303 303 302 301 301 301 301 299 299
290 290 298 299 299 298 294 291 293 286 279 285 288 292 295 298 298 299 298 299 299 300 302 303 304 305 305 305 306 305 305 305 305 305 302 302 301 300 300 300 299 298 297 299
295 290 295 297 299 299 297 297 289 289 282 280 286 287 290 293 295 296 297 298 300 302 303 304 305 305 305 306 305 306 306 304 304 303 300 300 300 300 298 296 295 296 297 300
295 293 291 294 294 293 294 292 291 291 288 284 281 287 295 295 296 296 297 298 300 302 303 304 304 305 304 305 305 305 305 303 303 299 299 299 298 295 293 294 295 295 298 297
296 291 287 290 295 297 295 292 291 286 283 286 284 285 296 297 298 298 298 299 301 302 303 303 303 304 304 304 304 304 303 301 299 298 299 297 294 292 292 293 294 295 295 295
297 290 284 285 291 294 293 294 291 289 288 285 283 286 295 296 296 298 299 300 301 302 302 303 303 302 302 301 302 302 301 299 299 298 297 294 293 292 294 295 295 296 296 295
298 290 287 283 286 290 288 291 292 292 286 286 287 289 294 296 296 297 297 300 301 301 301 301 301 299 299 300 300 299 298 298 297 297 296 294 294 294 295 295 295 295 295 294
297 290 290 290 291 291 290 290 291 289 291 286 289 290 294 296 296 297 300 300 299 300 300 299 297 296 297 298 298 297 297 297 297 296 296 295 296 296 294 293 294 294 294 294
294 289 289 286 289 288 286 290 290 291 291 290 291 290 297 298 297 298 298 298 297 297 295 295 295 294 296 297 296 295 295 295 296 295 292 291 292 293 292 293 293 293 291 289
292 289 285 283 286 286 283 286 289 290 292 291 287 292 294 295 296 297 298 297 294 292 293 293 294 295 296 296 295 294 294 294 294 291 291 291 292 290 289 288 288 287 287 287
287 286 285 284 285 279 290 293 293 291 292 293 291 293 294 296 298 298 296 294 292 293 292 293 294 296 297 296 294 293 292 291 291 290 291 291 289 287 287 287 286 285 285 285
292 288 284 282 283 286 290 292 291 289 289 293 294 295 296 298 298 294 294 294 292 292 294 294 297 297 295 293 294 290 290 289 289 290 289 288 287 286 286 285 284 284 284 284
290 287 287 284 281 279 289 291 294 294 286 295 296 296 296 296 288 293 292 293 294 294 295 295 297 295 293 293 294 292 291 290 289 288 287 287 286 285 284 284 283 284 283 283
283 284 283 284 282 286 291 293 294 285 287 294 296 297 295 291 291 292 293 293 294 295 293 296 296 292 292 294 293 290 288 287 289 287 286 286 285 285 285 283 284 283 282 282
285 284 281 282 281 279 293 293 290 295 297 296 296 296 292 293 292 292 293 293 292 293 293 294 293 292 292 293 291 289 288 291 291 287 286 285 285 284 283 283 283 282 282 281
285 289 287 287 287 293 295 297 299 297 296 294 294 293 292 291 290 292 292 292 292 292 293 293 292 291 291 293 292 289 291 291 289 286 285 285 285 284 283 282 282 281 281 280
291 293 290 289 294 295 297 299 298 297 294 295 295 294 293 292 292 292 292 292 291 291 291 292 290 290 290 293 291 290 290 288 286 285 285 285 284 284 284 283 282 281 281 279
294 294 291 290 295 296 296 298 297 295 296 295 295 294 293 293 292 291 291 290 290 290 290 290 290 290 291 291 290 288 286 286 285 285 285 284 284 283 282 282 281 281 281 279
295 293 290 290 297 296 296 298 297 294 293 294 293 292 292 292 291 290 289 289 289 289 289 289 288 288 287 286 285 285 285 284 284 283 283 283 282 282 281 280 280 280 279 279

GFSCGP_sfc_thetae_012.txt.gz
Theta_e
307 304 300 301 302 301 299 297 297 299 302 302 301 301 302 305 306 306 306 307 309 313 313 313 315 316 317 321 321 322 321 317 320 319 315 316 316 316 317 318 318 318 318 318
303 299 301 302 302 299 299 297 297 300 301 302 302 300 302 304 304 306 307 308 309 310 311 312 315 316 317 316 316 314 313 314 314 316 316 316 316 317 317 317 317 316 315 315
300 299 301 301 301 300 299 297 297 297 301 302 301 299 300 302 305 306 307 309 309 310 310 310 311 313 315 315 315 314 315 315 316 315 316 316 316 315 313 312 312 312 312 312
300 302 301 301 299 301 296 300 300 298 298 295 301 294 298 300 301 304 305 308 308 309 309 310 311 312 314 315 316 315 315 314 314 314 313 312 310 309 310 310 311 310 311 310
297 300 300 299 299 302 299 302 300 299 299 298 298 296 298 301 299 301 304 305 308 308 309 310 310 312 313 314 315 315 314 313 313 312 312 311 310 310 310 310 309 309 309 309
301 305 304 302 302 302 303 300 300 301 300 293 296 295 296 300 298 301 304 305 307 308 308 310 311 312 312 315 315 314 313 312 313 313 310 310 309 309 308 307 305 305 306 306
300 301 304 305 301 304 303 298 294 292 292 291 296 294 296 299 301 303 303 306 308 310 310 309 309 310 311 312 313 313 312 311 311 311 309 309 309 308 307 306 304 303 303 304
295 293 301 304 301 299 299 299 293 284 288 291 295 291 296 302 304 305 305 306 307 307 308 309 309 310 311 311 312 312 311 310 309 309 309 309 309 308 305 304 303 302 302 303
296 294 302 302 303 302 298 296 299 292 287 290 295 296 300 302 302 303 303 305 305 306 307 308 309 310 311 311 311 312 311 311 310 309 309 308 308 305 303 302 302 302 303 302
299 293 299 301 303 304 301 301 294 296 286 282 290 291 293 298 300 301 302 304 305 307 307 308 309 310 310 311 312 312 311 310 310 309 307 306 305 303 301 301 300 301 302 303
300 297 295 299 298 297 299 298 296 296 294 287 284 289 301 299 301 300 302 304 305 306 307 308 308 309 310 310 310 309 309 308 306 306 305 304 302 300 300 300 300 300 300 299
301 298 292 293 299 302 300 297 296 291 285 291 289 289 301 302 302 302 303 303 305 307 307 308 308 308 308 308 307 306 306 305 304 304 303 301 300 300 299 299 299 300 299 299
302 296 289 291 296 299 297 298 297 295 293 289 287 290 300 302 302 303 303 304 305 306 306 307 307 307 305 304 303 303 303 303 303 302 301 300 300 299 298 298 298 298 297 297
302 297 292 288 290 294 292 294 296 295 290 290 291 293 297 299 300 302 303 304 305 305 305 306 305 304 302 301 301 302 302 302 301 300 299 299 298 298 298 297 297 297 296 295
303 292 295 295 296 295 294 293 294 293 294 289 292 293 297 299 300 301 302 304 303 303 303 302 301 299 299 299 301 302 300 299 300 299 299 297 297 297 296 295 295 295 295 293
301 293 293 290 294 294 292 294 294 294 295 295 295 294 300 300 302 301 301 301 300 300 299 296 296 297 297 299 300 298 297 298 300 298 296 296 295 295 294 294 293 292 291 291
297 295 291 288 291 291 288 292 293 294 296 295 291 296 299 299 299 300 301 300 297 295 294 295 296 296 298 300 298 297 297 298 297 296 295 294 294 293 292 291 290 289 290 290
293 294 290 288 288 283 293 298 297 295 296 298 297 297 299 300 301 303 300 297 293 294 295 296 297 297 299 300 298 298 297 296 296 295 294 294 292 291 290 289 289 289 289 289
299 295 287 285 285 290 292 295 294 292 293 298 297 299 301 301 302 300 295 294 295 297 297 297 298 299 300 299 298 298 297 296 295 293 292 292 291 290 289 288 288 289 288 288
295 295 294 287 283 282 293 296 298 298 290 299 299 298 298 299 290 291 295 298 297 297 297 297 297 299 300 299 299 297 296 295 293 293 293 292 291 289 288 288 288 289 288 287
287 287 287 287 285 289 297 297 299 287 291 300 297 297 296 291 292 296 297 296 297 297 296 297 297 297 298 299 298 296 295 293 293 293 293 292 291 289 289 289 289 288 287 286
290 289 286 287 283 282 298 297 291 298 300 297 297 296 294 295 295 296 295 295 295 295 295 296 295 295 296 297 296 295 294 294 294 294 293 291 290 289 288 288 288 288 287 284
290 294 292 291 293 300 302 301 303 302 300 295 296 298 296 295 294 294 293 294 294 295 295 295 294 294 295 295 296 294 294 294 293 291 291 290 289 289 289 288 287 286 285 282
297 299 294 294 297 300 302 304 303 300 296 298 298 296 295 294 293 292 293 294 294 294 293 294 293 291 292 294 294 293 293 292 291 291 289 290 289 288 289 288 286 284 282 281
299 299 296 295 299 300 301 301 301 298 297 296 296 295 294 292 292 292 292 292 292 292 293 292 291 291 291 292 291 292 290 289 288 288 288 288 288 287 287 286 285 284 283 281
300 297 293 291 299 297 298 298 299 297 295 294 294 292 292 292 292 292 291 291 291 291 292 291 291 290 290 290 290 289 289 288 286 286 287 287 287 287 285 285 284 281 279 278

GFSCGP_sfc_thetae_015.txt.gz
Theta_e
309 305 303 303 304 303 301 299 299 302 304 302 302 303 305 308 309 309 311 311 311 313 320 319 319 320 322 326 327 328 326 321 321 320 317 317 317 318 319 320 320 320 319 318
304 302 304 305 304 302 301 299 299 302 303 303 303 303 305 306 307 309 310 311 313 314 314 315 318 319 320 320 320 319 318 318 318 318 318 319 318 318 319 319 318 318 316 315
302 303 304 303 302 301 302 300 300 299 303 305 303 301 302 305 307 309 310 311 311 311 311 313 315 317 319 318 318 317 317 318 317 318 318 317 317 317 316 315 315 315 315 314
303 305 303 302 301 303 299 303 302 301 300 296 304 296 301 303 304 306 308 309 310 311 312 313 314 315 317 317 318 317 317 316 316 317 315 315 313 311 313 314 314 313 313 311
301 302 302 301 301 304 301 305 302 302 301 300 300 296 299 303 301 303 306 308 310 311 312 312 313 315 316 317 318 318 316 316 316 316 315 313 312 312 313 312 311 310 310 310
304 307 306 304 305 304 306 304 303 303 301 294 299 297 299 301 302 303 306 308 309 311 312 312 313 314 315 317 318 317 316 315 315 315 315 312 311 310 309 309 307 307 307 306
302 303 306 307 304 306 305 301 295 293 293 293 299 295 299 303 304 305 305 308 310 312 312 311 312 313 313 314 315 316 315 314 315 313 313 313 311 310 308 307 306 304 303 304
298 296 302 305 303 301 301 301 295 286 289 292 298 292 299 305 307 307 308 308 309 310 311 311 311 313 313 313 315 315 314 313 314 314 313 312 311 309 307 305 303 302 302 304
298 297 304 305 306 305 301 298 301 295 293 292 295 298 303 305 305 305 306 307 308 308 309 310 311 312 312 313 313 314 313 312 312 312 312 310 308 307 304 303 302 302 303 303
301 296 301 303 306 306 303 303 296 298 286 283 291 292 295 300 302 303 304 305 307 308 309 310 311 312 312 312 313 313 312 310 310 308 308 307 306 305 303 302 301 301 302 302
302 299 298 301 300 299 301 300 298 297 295 288 286 291 301 301 302 302 304 305 307 308 309 309 310 311 311 312 311 310 309 308 307 307 306 305 304 303 302 301 301 300 300 300
303 300 294 295 302 304 302 299 298 292 289 293 291 290 303 303 303 304 304 306 307 308 308 308 308 308 309 309 309 307 306 305 305 304 303 302 302 301 301 300 298 299 298 299
303 299 291 293 299 302 298 299 298 296 295 289 289 291 302 303 303 304 304 305 306 306 306 306 307 307 306 306 306 304 304 304 304 302 301 300 300 300 298 298 297 297 297 296
303 299 293 290 293 296 294 296 297 296 291 291 292 294 299 300 301 303 304 306 305 305 304 304 305 305 305 303 302 302 303 303 301 300 300 299 299 298 297 297 297 296 295 294
304 294 297 297 297 296 295 295 296 294 295 291 294 294 298 300 301 302 304 305 303 303 304 303 303 302 301 300 301 302 302 301 300 299 299 298 298 297 296 296 295 294 293 292
302 295 295 292 296 295 293 295 296 296 296 296 296 294 302 303 304 303 302 303 301 301 301 301 299 299 298 299 300 301 300 300 299 298 297 298 297 295 295 294 293 292 292 291
299 298 293 289 295 293 289 294 295 296 297 297 292 297 301 300 300 299 300 301 301 298 297 299 298 299 299 299 300 300 299 300 298 297 297 296 296 295 294 292 291 291 290 291
298 296 294 290 289 284 296 301 299 297 298 299 299 300 301 300 301 301 302 301 298 298 299 299 299 298 299 300 300 301 300 299 298 297 296 296 295 294 292 292 290 290 290 290
303 298 290 287 288 291 295 297 296 295 294 300 299 301 302 302 302 299 300 300 299 299 300 299 299 298 298 299 299 299 298 297 297 296 294 294 294 293 291 290 290 290 290 289
299 300 296 290 284 283 294 299 301 301 290 301 301 300 299 299 292 295 301 301 300 300 299 298 298 298 298 297 298 297 296 295 295 295 294 295 293 292 291 290 290 290 290 288
289 290 290 288 287 290 298 300 302 288 292 302 302 300 297 294 296 299 300 299 299 298 297 298 298 296 297 297 296 294 294 294 295 295 295 295 294 292 291 290 290 289 289 288
291 289 286 290 285 283 301 299 293 299 304 302 299 297 296 298 298 298 297 296 296 296 297 297 296 295 296 295 294 293 293 295 296 296 294 293 293 291 290 290 290 289 288 287
292 296 294 294 294 302 303 301 304 305 303 300 296 298 299 297 296 296 295 295 295 295 295 295 294 294 294 294 293 291 293 294 294 293 292 292 291 291 290 289 288 287 287 284
299 303 297 297 299 300 301 304 304 304 302 300 298 299 297 296 295 294 294 294 294 293 293 293 293 292 292 293 293 292 292 292 291 290 290 290 289 289 289 289 288 286 285 282
301 301 298 298 301 300 303 302 302 302 301 298 300 298 297 295 294 294 293 292 292 292 292 293 292 292 292 292 292 292 291 290 289 288 288 288 289 288 288 287 287 286 285 282
301 299 297 294 301 299 300 301 302 300 299 298 296 295 296 296 294 293 292 292 292 292 292 292 292 292 292 291 290 290 291 289 287 286 287 288 288 287 286 286 285 282 280 279

GFSCGP_sfc_thetae_018.txt.gz
Theta_e
309 303 301 303 303 302 301 299 298 302 304 301 301 302 305 307 308 309 310 313 312 314 316 318 319 322 324 327 324 326 322 322 320 319 316 317 316 317 318 318 320 318 317 316
303 300 304 305 304 302 301 299 299 302 304 301 301 301 304 306 307 309 309 310 312 312 313 316 317 318 319 319 319 318 318 318 317 317 317 317 316 317 317 318 317 317 315 314
301 302 305 303 302 301 301 299 300 299 302 304 301 299 301 305 307 309 310 312 312 311 311 313 315 317 319 318 318 316 317 317 317 317 316 315 316 315 314 313 313 315 314 312
303 305 303 302 301 302 298 304 302 300 299 294 302 292 299 302 303 305 307 309 309 310 311 313 314 315 316 317 318 317 317 316 316 317 314 314 312 309 312 312 312 311 311 310
301 302 302 301 302 303 300 304 302 301 299 298 298 295 299 302 300 303 306 308 310 311 312 312 313 314 315 318 318 318 317 316 316 315 315 312 310 310 310 309 309 308 307 306
304 307 306 304 305 304 305 304 303 302 300 294 297 296 296 299 301 303 306 308 309 310 312 312 314 315 315 318 318 318 316 315 316 314 313 312 310 309 307 307 305 303 303 303
302 303 306 306 303 306 305 301 295 293 294 292 299 294 298 303 305 305 305 307 310 312 312 312 312 312 314 314 316 315 315 313 314 315 313 312 310 308 305 304 301 300 300 300
297 295 302 306 303 300 301 300 295 286 288 291 298 292 296 305 306 307 308 308 309 310 311 311 312 312 313 314 314 314 313 311 311 312 311 311 309 306 304 302 300 300 299 300
297 297 304 305 305 304 300 297 300 296 293 291 293 298 302 304 304 305 305 307 307 309 310 311 312 313 312 312 313 313 311 310 310 310 309 308 306 305 302 301 300 300 300 300
301 296 301 303 305 306 302 302 295 298 287 284 289 292 294 299 301 303 304 305 306 308 309 310 310 311 311 312 312 312 310 308 308 306 305 304 303 303 302 300 299 299 298 299
302 299 298 301 300 298 300 298 298 296 295 287 285 289 299 299 302 302 304 305 306 308 308 309 309 310 310 311 309 308 307 305 304 304 304 303 302 301 301 300 298 298 297 297
301 299 297 296 301 303 301 298 298 293 290 294 292 289 302 303 303 304 304 305 307 307 307 307 308 309 308 307 307 306 304 303 303 303 301 300 300 300 299 298 297 297 296 296
302 299 293 293 299 302 297 299 298 297 296 289 286 289 303 303 302 304 303 304 305 306 306 306 306 306 305 305 304 303 303 302 302 300 299 298 299 298 297 296 297 296 295 294
304 299 294 291 292 296 293 295 297 295 291 291 291 293 297 300 301 302 303 305 304 305 304 304 304 304 303 302 302 301 301 303 300 299 298 297 298 297 295 295 296 295 294 292
304 295 297 297 296 296 295 294 295 293 294 289 292 293 297 300 301 302 303 303 303 303 303 302 302 301 300 300 300 300 301 301 300 299 297 297 298 297 295 295 295 294 293 291
303 297 297 293 296 295 292 294 295 295 295 295 295 294 301 303 303 301 301 302 302 301 300 300 300 300 299 299 299 299 300 300 300 298 297 298 297 297 295 294 294 293 291 290
300 299 294 290 294 292 290 295 295 296 297 296 292 297 301 300 300 300 300 302 300 299 298 299 299 299 298 297 298 297 298 300 299 298 298 297 297 295 295 294 292 291 289 289
298 297 293 289 289 283 295 299 299 296 297 298 298 300 301 300 300 301 301 299 298 298 298 299 299 298 298 297 297 297 297 296 296 297 296 296 296 295 294 293 291 290 289 288
303 298 289 287 287 290 294 297 295 294 293 300 299 300 300 300 300 299 301 301 299 300 300 298 297 297 297 297 296 295 295 294 294 294 294 295 295 293 293 292 290 288 288 287
301 302 295 288 284 282 295 299 302 300 289 302 301 299 298 298 291 294 299 300 299 298 297 296 297 297 296 295 295 293 293 292 292 295 295 295 295 294 291 290 289 288 288 287
288 291 288 288 286 290 298 300 302 287 291 302 301 300 298 294 296 298 299 298 297 296 296 297 296 294 294 294 294 292 291 291 293 294 294 294 294 292 291 290 289 288 286 285
289 288 286 289 286 283 301 299 292 300 303 303 301 299 297 298 298 298 297 295 295 294 294 294 293 292 294 294 293 291 290 292 293 292 292 292 293 292 291 289 288 287 285 283
293 297 295 294 293 302 305 301 304 305 303 300 300 299 299 298 295 295 293 294 294 293 292 293 292 292 293 293 292 290 291 292 291 290 289 290 290 290 290 288 285 283 283 281
299 302 299 298 299 300 303 304 304 303 301 301 300 300 300 296 295 293 294 293 292 292 291 292 291 291 291 293 293 292 291 291 290 288 288 288 288 288 287 287 285 283 281 280
301 301 299 298 301 302 303 303 303 301 301 300 300 299 296 295 294 294 292 292 292 292 292 292 291 291 291 292 292 291 290 290 288 287 287 286 286 286 285 285 283 282 281 279
301 298 296 295 302 301 301 302 302 300 298 300 296 295 296 295 292 292 291 292 292 291 291 291 291 291 291 291 290 290 290 289 286 284 284 284 284 284 284 283 282 283 281 281

GFSCGP_sfc_thetae_021.txt.gz
Theta_e
303 297 293 295 297 298 297 294 294 294 299 297 295 294 297 300 300 299 301 306 307 309 311 312 313 314 315 313 314 313 313 311 311 310 308 308 308 309 310 311 311 312 311 310
298 294 299 302 301 299 297 295 295 297 300 296 293 294 297 301 300 302 305 305 306 308 309 311 312 311 310 309 310 310 310 310 310 309 308 309 308 309 309 310 310 311 308 307
296 298 303 301 300 298 298 296 295 295 298 296 295 292 296 301 303 305 305 306 306 307 308 310 310 308 308 308 308 309 310 310 309 309 309 308 308 307 307 307 307 306 306 304
299 302 301 299 299 298 295 301 300 297 294 288 294 285 293 297 299 302 302 301 303 305 308 310 309 308 308 308 309 309 309 309 310 309 307 306 304 303 305 304 304 303 303 302
297 299 300 299 299 301 298 302 299 298 293 291 293 288 291 297 297 299 301 303 303 304 305 306 307 308 309 309 308 309 309 309 309 309 307 305 304 304 304 303 301 300 300 301
299 303 301 299 303 302 302 300 299 298 294 284 295 292 293 294 298 300 302 303 304 304 305 306 308 309 308 308 308 308 308 308 309 309 307 305 303 302 300 299 297 297 298 298
298 300 302 304 299 302 300 295 285 284 283 283 297 293 294 298 301 302 302 302 303 304 303 304 305 308 309 305 306 307 307 306 307 307 306 304 301 300 298 296 295 295 295 295
293 290 299 303 299 295 297 295 283 281 280 283 295 289 291 301 303 304 304 303 304 304 304 304 304 304 305 306 305 306 306 305 306 305 303 302 301 300 298 297 296 295 295 295
294 293 301 302 302 300 297 290 296 289 285 281 289 294 299 301 302 303 302 303 302 303 304 305 304 304 304 304 305 304 304 303 304 302 301 300 300 299 297 296 295 295 294 296
297 291 299 301 301 302 298 298 289 287 280 279 285 289 290 296 299 302 302 300 301 303 303 303 303 304 304 304 304 303 303 301 300 299 300 298 297 297 296 295 294 294 293 294
298 296 294 298 295 294 295 294 294 292 286 280 277 283 294 297 301 300 300 302 300 300 301 302 303 303 303 303 302 302 299 298 298 297 297 295 295 295 295 295 294 293 293 293
298 294 285 293 298 300 297 295 295 282 284 283 281 283 297 298 300 299 299 301 301 301 301 301 302 301 301 300 300 299 297 297 297 296 296 295 295 295 294 293 293 293 292 292
298 292 283 289 295 298 293 296 296 294 286 283 276 281 298 301 300 302 299 300 300 300 300 300 299 299 298 298 297 296 296 297 296 296 294 293 293 294 292 292 293 293 292 291
301 295 289 283 288 291 289 292 293 291 282 283 284 289 294 297 298 298 298 298 298 299 299 298 297 298 297 297 296 295 296 297 296 295 294 294 293 294 292 292 292 292 291 289
298 289 293 293 293 293 291 291 291 289 289 283 286 290 294 295 296 298 299 300 299 298 298 298 297 296 296 295 295 295 295 296 296 296 295 294 295 295 292 293 294 293 291 289
299 287 287 286 294 292 289 291 292 292 292 291 291 291 298 298 298 297 298 298 297 296 297 297 297 296 296 294 293 294 293 294 296 295 295 296 295 294 294 293 293 292 290 287
295 287 283 282 289 287 281 289 292 292 294 292 285 292 296 295 295 295 295 296 296 295 295 296 296 296 294 292 293 291 291 292 292 292 293 294 294 294 294 294 293 291 287 285
290 288 284 278 280 272 291 296 296 293 294 294 295 295 295 294 295 296 296 295 294 295 296 297 297 295 292 292 291 291 291 290 290 290 292 293 293 292 292 292 291 288 286 285
299 287 279 278 279 284 291 295 293 290 289 297 296 296 295 296 296 293 296 296 294 296 296 294 292 291 290 290 290 289 289 289 289 291 291 292 292 291 290 289 287 288 286 285
297 290 282 281 273 271 287 296 299 297 282 298 298 295 294 294 282 289 295 296 296 293 291 291 291 290 289 289 289 288 287 287 289 290 290 291 291 291 290 288 288 287 284 284
285 285 278 276 272 282 294 298 299 282 283 297 297 295 293 289 290 294 296 296 292 291 291 290 289 287 288 289 289 287 287 287 289 289 290 290 290 290 290 288 287 285 282 281
282 280 277 282 280 276 298 297 287 291 298 298 296 294 295 296 296 296 293 291 291 289 288 289 287 287 288 289 288 287 286 288 289 288 288 287 288 289 290 287 286 283 280 279
285 288 284 286 284 294 298 296 298 300 298 295 295 298 297 296 295 292 291 291 289 287 287 288 287 287 288 289 289 287 287 288 288 286 285 285 285 286 286 282 280 280 279 275
294 298 288 290 295 297 298 300 300 299 297 298 299 298 298 295 292 290 290 288 287 287 286 287 287 287 287 288 289 288 287 288 286 284 284 284 283 284 283 282 281 279 275 273
293 296 293 289 295 297 299 300 299 298 299 299 300 299 294 292 290 288 287 287 287 286 287 287 287 287 287 288 288 287 287 287 285 283 283 281 281 281 281 281 279 279 277 276
298 293 288 285 296 296 296 298 300 299 298 298 297 292 293 290 288 288 286 286 286 286 287 287 288 287 287 287 287 287 287 285 283 281 280 279 278 278 280 279 279 283 281 282

GFSCGP_sfc_thetae_024.txt.gz
Theta_e
301 295 291 293 295 296 296 293 291 291 296 295 293 292 295 297 298 301 304 305 305 306 308 310 310 311 310 311 311 312 311 309 309 309 308 307 306 307 308 309 308 306 306 306
296 293 297 299 300 298 296 294 292 295 299 294 293 292 296 298 299 303 304 304 304 306 307 308 308 308 308 307 309 308 309 308 307 307 306 307 306 307 306 306 305 304 304 303
294 296 301 300 297 297 296 293 293 293 295 294 293 291 294 300 303 304 304 305 306 306 305 306 307 307 307 305 307 307 307 307 307 307 306 306 305 305 304 302 301 302 303 302
296 300 299 298 297 296 293 299 297 295 291 286 292 283 292 296 297 299 300 301 304 307 307 307 306 305 305 305 306 306 307 307 308 307 306 304 302 301 301 300 298 298 300 300
295 298 298 296 297 298 296 299 297 296 291 290 291 286 289 296 295 297 299 301 303 304 306 305 306 306 306 306 306 306 307 307 307 306 305 304 302 301 300 298 297 298 298 299
297 301 299 297 300 300 300 298 297 295 292 283 293 288 288 291 295 298 301 301 302 302 303 305 306 307 306 305 305 304 305 306 306 305 303 301 299 298 296 295 295 295 296 296
297 298 300 302 297 300 297 293 283 283 282 282 295 291 291 296 299 300 300 299 300 301 302 303 305 305 305 303 304 304 304 304 305 303 301 300 299 297 295 295 294 293 294 293
290 288 297 301 297 294 295 293 282 281 279 282 291 287 290 299 303 303 302 302 303 302 302 302 302 302 303 303 303 303 303 303 303 301 300 299 299 297 296 295 294 294 293 293
291 291 298 299 299 298 295 289 294 286 283 280 287 291 296 300 300 302 303 304 300 300 300 301 302 301 302 302 302 301 303 301 300 302 299 297 298 297 296 294 293 293 293 295
296 289 297 298 301 300 295 296 288 285 279 279 283 286 288 294 296 299 298 298 299 301 301 301 301 302 302 302 301 300 300 298 298 297 297 296 295 295 295 293 293 293 292 293
296 293 292 298 293 292 293 291 291 289 284 279 276 282 292 296 299 296 297 298 299 300 300 301 301 301 301 299 298 297 296 296 296 296 295 294 294 294 294 293 293 293 292 292
296 291 284 291 296 297 295 293 291 281 283 281 279 281 296 296 297 298 298 299 299 301 301 299 299 298 297 296 295 296 295 295 296 295 295 293 293 293 293 292 293 292 291 292
295 289 282 287 293 296 292 294 295 290 284 282 275 280 296 298 296 298 297 297 298 297 297 297 296 297 296 296 295 294 294 294 295 295 293 292 292 292 292 291 291 292 292 291
300 292 287 283 287 290 286 290 292 289 280 282 282 286 291 294 294 295 296 296 295 296 296 296 295 295 295 294 294 293 293 293 294 294 293 292 292 293 291 290 292 293 294 292
296 288 290 290 291 291 289 288 288 287 287 283 285 287 292 293 294 296 297 296 296 295 296 296 295 294 294 293 293 292 292 292 293 292 292 292 293 293 291 291 292 293 292 292
296 285 286 284 292 290 286 288 289 290 290 289 290 289 296 296 294 295 296 295 295 296 295 294 294 295 295 293 290 291 290 291 291 290 291 293 292 292 292 292 292 290 292 291
292 285 281 279 287 285 280 287 290 290 291 290 285 290 294 292 294 293 293 294 294 293 293 295 295 295 294 289 290 289 289 290 289 290 292 292 291 291 291 291 291 291 287 287
288 285 281 276 277 270 287 294 294 291 292 293 293 292 293 293 293 293 294 293 293 293 294 294 292 290 289 288 288 288 288 288 289 290 290 291 291 290 290 288 289 288 286 286
295 283 279 274 277 281 288 293 291 289 288 295 293 293 294 294 293 291 294 294 293 293 294 290 288 288 287 287 288 288 286 287 288 288 288 289 290 289 289 289 288 285 284 282
293 286 280 281 271 270 283 294 297 295 283 296 296 293 293 292 281 286 294 294 294 291 289 287 287 287 286 287 287 286 285 286 287 287 288 289 289 288 288 287 285 285 283 283
282 279 277 270 270 280 289 296 297 282 283 296 295 294 292 288 289 292 295 294 290 289 288 288 287 286 286 286 286 285 286 285 287 288 288 287 287 287 287 287 286 284 281 280
282 280 277 277 271 275 294 295 287 290 295 296 295 294 293 293 294 295 292 289 288 286 286 287 286 286 286 287 287 285 285 287 287 286 285 285 284 285 285 283 280 280 279 278
284 285 283 285 284 292 295 294 296 298 296 295 294 296 296 296 295 291 289 287 287 285 285 286 285 286 287 287 287 285 286 287 286 284 283 283 283 283 282 280 279 279 278 274
292 296 287 288 293 294 296 298 298 298 296 296 299 299 299 296 291 287 287 286 285 284 284 285 285 285 285 287 287 286 286 286 284 283 282 282 281 282 281 280 280 278 273 272
289 294 292 287 293 295 297 296 297 296 297 298 300 299 296 289 286 286 285 285 284 284 285 285 285 285 286 286 286 286 286 285 283 282 282 280 280 279 280 280 278 278 277 275
295 292 287 285 294 294 295 297 298 296 297 299 297 289 288 287 286 285 284 285 284 284 285 285 286 286 286 286 285 285 285 285 283 281 280 279 277 276 279 279 278 282 281 283

GFSCGP_sfc_thetae_027.txt.gz
Theta_e
300 294 290 291 293 294 292 290 289 289 294 293 291 291 294 293 298 300 301 303 303 304 306 308 309 310 311 311 311 312 312 310 311 309 309 306 305 304 304 303 303 302 303 303
295 291 295 298 299 296 294 291 290 293 296 293 291 291 297 298 299 300 302 302 303 303 305 306 307 307 308 309 310 307 307 307 306 306 306 305 304 303 302 301 300 302 301 300
292 294 300 298 296 296 294 291 291 291 293 293 291 289 293 299 301 303 302 303 304 303 303 305 307 307 307 305 305 306 305 306 306 306 305 304 304 303 300 298 298 299 299 299
295 300 298 296 295 295 292 297 295 293 290 285 290 282 291 294 295 299 300 301 302 303 305 307 306 304 303 303 304 305 306 305 306 305 304 303 301 300 299 297 296 297 298 298
294 296 296 295 295 296 294 297 294 293 289 287 290 285 287 295 293 296 298 301 302 305 305 304 304 304 305 304 303 304 305 305 305 304 304 302 300 300 298 297 296 296 296 297
296 299 297 296 298 297 298 296 295 293 290 283 290 286 285 289 294 296 298 302 304 304 304 304 304 305 305 304 302 302 304 304 304 303 302 301 298 297 295 295 294 294 294 294
295 296 298 299 296 298 296 291 282 282 281 281 291 288 288 294 297 299 298 299 300 301 302 303 305 305 305 303 301 302 303 303 303 301 300 299 297 296 295 295 293 292 293 292
289 287 295 299 295 292 293 291 282 281 278 281 290 285 289 296 299 301 300 300 300 300 302 303 302 301 301 302 301 300 302 301 301 300 299 298 298 296 296 295 293 292 293 292
289 289 297 297 297 297 293 287 292 285 282 280 285 289 295 297 298 299 299 300 299 298 298 299 300 300 300 300 300 299 299 299 299 298 297 297 297 296 295 294 293 292 292 293
295 288 295 296 298 297 293 296 286 284 278 278 282 285 286 292 295 298 296 296 297 298 298 299 299 300 300 301 299 298 298 298 297 297 296 295 294 295 294 293 292 292 292 292
295 291 290 295 292 290 292 289 289 288 283 278 275 281 290 294 296 294 295 296 298 298 298 298 298 299 299 297 295 295 295 296 295 295 294 293 293 292 293 292 292 292 291 291
294 290 283 289 294 296 293 291 289 279 281 280 278 280 292 295 296 297 296 297 297 298 297 297 299 298 297 295 294 294 294 293 294 294 293 292 291 291 291 291 292 291 291 292
294 288 281 286 291 293 290 292 291 287 283 281 275 280 294 296 295 296 295 296 296 295 295 295 295 295 295 294 294 293 292 291 293 293 291 291 291 291 290 290 291 291 291 290
298 290 286 282 285 289 285 288 290 288 280 281 281 283 290 292 293 293 294 294 294 294 295 294 294 293 294 294 292 290 291 291 291 290 290 290 290 291 290 290 289 290 291 290
294 286 288 288 289 288 287 287 288 286 286 282 284 285 289 292 292 294 295 294 294 294 295 294 293 294 293 292 289 289 289 290 290 290 290 290 291 291 291 291 291 291 290 290
294 284 285 284 289 288 285 287 286 286 287 288 287 287 294 294 294 294 294 294 293 295 295 294 293 294 293 289 288 289 288 289 289 289 290 291 290 290 289 289 289 289 292 289
289 284 281 278 284 283 278 285 288 289 290 289 284 289 293 291 292 293 293 293 293 293 293 293 293 292 288 287 288 287 287 288 287 289 290 290 290 289 289 288 288 288 287 286
287 283 278 275 277 271 285 290 292 289 290 291 291 291 293 292 292 293 294 293 292 292 292 291 288 288 287 287 287 287 286 286 288 288 288 289 288 288 288 287 288 288 287 283
292 282 278 274 276 280 286 291 289 288 287 293 291 291 292 292 291 290 293 293 292 293 292 288 287 287 286 286 286 286 285 286 287 286 286 287 287 287 287 286 285 285 283 281
289 284 279 278 270 270 282 292 295 293 282 294 293 292 291 290 282 287 293 293 293 289 287 286 286 286 285 285 285 285 285 285 285 286 286 286 286 286 285 285 284 286 284 282
281 277 276 270 270 279 287 294 295 282 282 294 294 293 291 288 289 292 294 294 290 286 286 286 285 285 284 285 285 285 285 284 286 286 286 285 284 283 283 283 283 282 280 280
283 281 280 279 273 277 292 292 287 290 291 295 294 293 292 294 294 296 294 288 286 285 285 285 284 285 285 286 286 284 284 286 286 285 284 283 283 283 282 280 280 280 279 279
282 285 282 284 284 290 293 293 294 295 295 295 294 294 295 295 295 291 287 287 285 284 283 285 284 284 285 285 285 284 285 285 285 284 283 282 282 282 281 279 278 278 278 274
290 292 285 287 290 292 293 295 296 297 295 295 296 296 297 296 291 287 285 284 284 283 283 284 284 284 284 285 286 285 285 285 284 283 283 282 281 281 281 280 279 278 273 271
289 292 289 286 291 293 296 297 296 295 296 297 298 297 296 292 286 285 284 284 284 283 284 284 284 284 284 285 285 285 284 284 284 284 283 281 281 279 280 279 278 279 277 276
293 291 285 285 293 293 293 296 296 295 295 297 295 290 288 287 285 284 284 284 284 283 284 284 284 284 284 284 283 284 284 284 284 283 283 281 279 276 279 279 278 282 281 282

GFSCGP_sfc_thetae_030.txt.gz
Theta_e
299 294 289 291 292 292 291 289 287 287 292 291 291 292 294 294 298 299 300 301 302 302 304 306 308 310 311 313 317 318 314 314 314 311 306 303 302 300 300 300 301 303 302 301
294 290 294 297 296 294 292 289 288 291 294 292 291 291 295 297 297 299 299 300 300 301 303 306 306 307 309 312 314 314 312 312 308 306 304 303 301 299 298 298 299 299 299 300
292 293 298 297 295 294 293 290 289 290 291 292 290 288 292 297 299 301 301 301 301 302 303 305 307 308 309 308 305 305 305 305 305 305 304 302 301 300 297 296 296 297 299 299
294 298 296 294 294 293 289 295 293 291 288 285 288 282 288 292 295 298 299 299 299 301 304 305 305 303 302 301 303 303 304 304 304 304 302 301 299 298 297 296 295 296 297 297
292 294 294 293 293 295 292 296 293 291 288 287 289 284 286 294 293 296 297 299 299 301 303 303 302 302 302 302 303 302 304 304 304 303 302 301 298 297 296 295 295 295 295 296
294 297 295 294 297 296 297 295 293 291 288 282 288 285 284 289 293 296 298 300 301 301 301 303 303 303 302 302 303 304 305 303 303 303 302 300 297 296 295 295 294 293 294 294
294 294 296 297 294 296 294 290 281 281 280 281 289 286 287 292 295 298 298 299 301 301 301 301 302 303 304 303 302 303 302 301 301 300 299 298 297 296 296 295 294 292 292 292
287 286 293 297 293 292 290 290 283 281 278 281 288 284 288 295 297 300 300 300 300 299 301 302 303 301 301 301 300 301 301 301 300 299 298 298 297 296 295 294 293 292 291 292
288 288 295 295 295 295 291 286 290 284 282 279 283 288 293 295 295 297 299 299 298 298 300 300 300 299 299 298 298 299 299 299 298 298 297 296 296 295 294 294 292 292 292 293
293 287 293 294 296 296 291 294 285 283 277 278 280 283 285 291 293 296 296 296 297 297 297 298 298 298 298 297 296 298 298 297 298 296 295 294 293 292 292 292 292 292 291 291
293 290 289 293 290 289 291 288 287 286 281 277 274 281 289 294 295 295 295 296 296 296 296 296 296 296 296 295 295 294 294 295 294 293 293 292 291 291 290 290 291 291 291 291
293 288 284 288 292 294 291 289 287 279 280 279 278 280 290 293 296 296 295 296 296 296 295 295 296 295 294 294 294 293 293 293 291 292 291 290 290 290 290 289 289 290 290 290
293 287 282 285 288 291 288 290 289 285 282 281 274 279 293 293 294 294 294 294 294 294 294 294 294 294 295 292 293 293 291 290 290 290 289 289 289 289 288 288 288 289 289 289
296 289 285 282 284 287 285 288 288 286 279 280 280 282 288 291 292 293 293 293 293 293 293 293 293 294 292 292 292 289 290 290 289 289 289 289 289 289 288 288 288 289 289 289
292 286 286 286 287 287 285 286 288 286 285 282 283 284 287 291 292 292 293 293 292 293 293 293 292 292 294 292 289 289 288 288 288 288 288 289 289 289 288 288 288 288 288 289
292 284 284 285 287 286 284 286 286 285 285 286 285 285 290 292 293 292 293 292 292 293 293 293 293 294 293 289 287 287 287 287 288 287 288 289 289 289 288 287 287 287 288 289
287 283 281 278 282 281 278 284 286 286 287 286 283 287 291 290 292 292 292 292 292 292 293 294 294 292 288 286 287 286 286 287 286 288 289 288 288 288 287 287 286 286 286 283
285 282 277 274 276 271 284 288 288 288 289 289 289 290 292 291 291 293 293 292 292 292 293 292 288 287 287 286 285 285 285 285 287 287 287 287 286 286 286 285 288 285 285 286
289 282 277 273 275 280 284 288 288 287 286 291 290 290 290 291 291 291 294 293 293 293 292 289 287 287 286 285 285 284 284 285 286 285 285 285 285 284 284 284 283 284 284 283
287 283 279 274 271 270 282 288 292 291 282 291 292 290 290 290 283 290 293 293 293 293 288 286 286 285 284 284 284 284 284 284 284 285 285 285 284 283 282 282 282 283 283 282
280 277 275 271 270 278 286 291 293 281 283 291 293 291 289 288 291 292 292 293 291 286 285 286 286 284 284 284 285 284 284 283 285 285 285 284 283 282 282 280 281 282 280 280
283 282 281 277 270 276 290 292 286 290 289 293 293 292 292 292 291 292 293 287 286 286 286 285 284 284 284 284 284 283 283 284 285 284 283 282 282 283 282 280 279 280 278 278
282 284 281 283 283 290 291 292 293 293 292 293 293 294 294 293 293 290 285 286 286 284 284 284 284 284 285 284 284 283 284 284 284 283 283 284 284 282 281 279 278 278 277 274
288 290 283 285 289 290 291 292 296 294 294 295 295 295 295 294 291 286 287 286 283 284 283 284 284 283 283 284 284 284 284 284 283 283 283 284 283 281 281 280 280 278 273 271
288 290 287 286 290 290 294 295 294 295 295 295 296 296 295 289 287 289 286 283 284 284 284 284 284 283 283 284 283 283 283 283 282 282 283 283 283 281 280 280 278 279 278 276
290 289 285 284 291 291 292 294 296 295 295 296 295 291 289 290 288 285 284 285 284 283 283 283 283 283 283 283 282 282 283 282 282 282 283 283 282 279 279 279 280 282 281 282

GFSCGP_sfc_thetae_033.txt.gz
Theta_e
301 298 295 297 297 295 294 294 293 295 297 299 297 297 299 300 305 306 307 308 309 309 310 314 317 321 322 323 322 322 316 315 316 313 309 308 308 307 307 308 308 308 308 308
299 295 298 300 298 296 295 294 294 296 296 298 296 297 300 302 302 305 307 307 308 309 312 313 315 319 323 320 317 319 322 317 316 313 313 312 309 308 307 306 306 307 307 306
297 297 300 299 297 297 296 295 294 294 296 297 296 295 297 300 303 303 305 307 309 312 311 312 315 318 320 319 321 320 317 317 315 313 311 309 308 306 305 305 305 306 306 305
298 300 298 297 297 297 294 298 296 295 294 291 294 290 294 298 299 301 304 307 309 309 310 311 311 311 311 311 313 315 314 313 312 312 311 310 310 308 307 306 306 305 305 305
297 298 297 297 296 299 296 299 297 295 294 294 294 292 293 298 297 300 303 305 306 308 309 308 308 308 309 310 311 312 312 311 311 311 311 311 308 307 306 306 304 305 304 304
298 301 300 299 299 299 300 299 297 296 294 289 292 291 292 295 298 301 304 305 305 307 308 308 308 309 309 310 310 311 312 310 311 310 310 309 308 306 306 306 305 305 304 303
297 297 300 301 299 300 299 296 289 288 289 287 292 290 294 296 299 304 304 304 305 307 308 307 307 307 308 309 310 311 311 309 309 309 309 308 308 307 306 305 304 303 303 302
292 290 297 300 298 297 295 296 290 282 284 288 291 289 294 299 301 306 306 306 306 307 307 307 308 309 309 308 308 310 309 307 307 307 307 308 307 306 304 303 302 302 301 301
292 291 298 298 300 300 295 291 295 288 285 286 289 293 297 298 299 302 304 304 305 306 306 307 308 308 308 307 307 308 307 306 305 306 306 304 303 303 303 302 301 301 301 300
296 291 296 298 300 299 297 297 290 289 282 281 285 287 291 295 297 300 302 303 305 305 305 306 306 305 305 305 304 306 305 304 304 304 303 301 301 300 300 300 299 299 299 300
297 295 293 297 295 294 295 292 290 291 287 282 281 286 296 297 299 300 303 304 303 303 303 304 303 304 303 301 302 303 301 302 301 300 300 299 298 298 298 297 298 298 298 298
297 293 290 293 296 298 296 294 292 287 284 285 285 287 295 298 301 302 303 301 302 302 302 301 301 301 300 300 299 298 299 297 298 299 298 297 297 297 297 296 296 296 295 296
297 292 288 289 293 296 294 294 291 289 288 285 286 287 295 298 298 301 301 300 300 300 299 300 299 299 299 297 298 298 297 296 296 296 296 296 296 296 295 294 295 295 295 295
299 292 291 288 289 291 290 292 291 291 287 286 287 289 292 296 297 298 299 300 299 298 298 299 299 298 297 297 297 295 295 296 295 295 295 295 295 295 294 294 294 294 294 294
296 291 291 290 290 290 289 290 290 289 289 288 289 288 292 295 299 299 299 298 297 297 297 298 298 297 297 297 294 294 294 294 295 293 294 295 295 294 294 293 293 293 293 293
294 290 289 288 289 288 288 289 290 290 289 290 289 289 295 296 297 297 297 297 296 297 297 297 296 297 297 294 294 293 293 293 293 292 293 294 293 293 293 292 292 292 292 291
291 289 287 284 284 285 284 288 290 289 290 292 288 294 296 295 295 297 297 297 297 297 297 296 296 296 295 293 292 292 292 292 291 292 293 292 292 291 291 291 291 291 291 290
288 286 283 283 281 279 289 292 292 291 292 292 292 294 296 296 296 297 299 298 297 297 297 296 295 293 292 292 292 291 290 290 290 292 291 291 291 290 290 290 289 290 291 291
291 286 281 283 281 284 288 288 290 290 290 294 293 294 295 295 297 297 299 299 299 299 298 296 293 292 292 291 290 289 289 290 290 289 290 290 290 289 288 288 288 289 289 289
289 288 288 280 281 279 287 290 296 295 288 294 295 294 294 295 293 297 298 298 298 298 296 291 291 291 290 290 289 289 289 289 289 289 290 290 290 288 288 287 287 288 290 289
286 284 284 277 283 284 289 292 296 287 289 294 296 296 294 295 299 297 298 297 296 293 289 290 290 290 289 289 289 289 288 288 289 289 289 289 289 288 288 287 287 287 287 286
287 285 283 279 280 282 292 295 291 296 295 296 297 297 296 297 296 295 295 292 289 288 288 289 289 289 289 289 289 288 288 289 289 289 289 288 288 287 287 286 286 285 285 284
286 290 287 287 288 294 294 297 297 296 296 298 297 298 298 295 295 293 289 288 288 287 287 288 288 288 289 289 289 288 289 289 288 288 288 288 288 287 287 285 285 284 284 283
291 292 289 289 293 292 294 296 296 298 298 300 300 300 298 297 295 289 287 289 288 287 287 287 287 287 287 288 288 288 288 288 287 287 287 287 287 287 286 285 285 284 283 282
292 291 290 290 293 293 295 296 299 298 299 299 299 299 299 296 289 288 289 287 286 287 287 287 287 286 286 287 287 287 287 287 286 286 287 287 287 286 285 285 284 284 284 283
292 292 290 289 294 295 296 298 300 298 298 299 298 294 292 292 290 288 285 286 286 287 286 286 286 285 286 286 286 286 286 286 285 285 286 287 286 286 285 284 284 284 283 283

GFSCGP_sfc_thetae_036.txt.gz
Theta_e
306 302 298 300 301 301 299 299 298 300 302 302 300 302 304 309 313 313 314 315 317 318 319 323 327 328 330 330 329 329 326 319 320 317 316 313 310 311 313 314 314 315 314 312
303 300 302 303 302 301 300 299 299 300 301 302 302 302 304 306 312 314 314 315 316 316 319 322 326 327 327 328 330 328 327 326 324 323 320 319 317 316 315 314 314 314 312 310
300 301 304 303 301 300 300 299 299 298 300 303 303 301 303 305 308 311 313 316 317 318 319 322 325 328 327 326 328 328 330 328 325 321 319 318 316 314 313 313 313 312 311 310
302 304 302 302 300 302 298 302 301 299 299 295 302 293 301 305 304 307 311 314 317 319 321 324 323 325 327 328 330 328 326 324 321 320 318 316 316 313 315 314 314 312 311 310
300 302 301 300 300 302 300 303 301 300 300 299 298 295 300 304 303 305 309 313 317 319 320 318 318 320 322 325 325 323 321 319 319 318 319 318 315 315 314 314 310 311 312 310
303 306 305 303 304 304 305 303 303 302 301 292 297 296 296 300 303 306 309 314 316 316 316 315 315 316 316 318 319 318 317 316 317 318 317 317 314 312 311 310 308 307 308 308
301 302 305 306 302 305 304 300 293 291 291 290 297 295 297 302 305 308 309 313 314 315 314 313 312 313 314 316 317 318 317 315 317 317 316 314 311 309 307 307 306 306 306 306
296 294 301 304 303 300 300 299 293 283 287 292 296 293 300 304 306 310 313 314 313 313 313 313 313 314 315 315 317 316 316 314 314 314 311 310 309 310 309 308 307 306 305 304
296 295 302 302 304 304 299 297 301 294 291 291 295 298 303 304 304 308 311 312 312 312 313 313 314 315 315 315 316 316 314 312 310 308 308 307 310 308 307 305 305 303 302 300
302 295 300 301 304 304 302 303 294 296 285 283 291 292 295 300 302 306 309 310 311 312 313 313 314 314 315 315 314 314 312 310 306 306 308 308 307 305 304 304 301 300 300 300
304 300 297 300 299 298 299 298 297 297 294 287 286 292 302 301 304 305 309 311 311 312 312 313 313 313 313 312 311 310 307 305 304 304 305 305 303 302 303 302 300 300 300 299
303 302 296 297 301 302 301 300 299 292 289 293 292 291 300 304 306 307 308 310 312 313 313 312 312 311 309 308 307 306 304 302 302 303 302 301 301 301 301 299 299 299 298 298
303 299 293 294 298 301 299 300 299 296 296 291 290 291 301 303 304 307 308 310 310 310 310 310 309 308 306 305 304 301 300 300 302 301 300 300 300 300 299 298 299 298 297 297
302 300 297 292 295 299 296 298 298 297 292 291 292 294 297 300 303 305 307 309 309 308 307 307 307 306 305 303 300 300 301 301 300 299 299 299 299 299 299 298 298 297 297 296
304 297 297 296 295 295 295 296 297 295 296 292 294 294 297 300 302 304 308 308 307 306 305 306 306 305 303 302 302 302 301 300 299 297 297 297 299 298 297 297 296 296 296 296
301 297 296 293 295 294 293 296 296 297 297 296 297 296 302 303 303 304 305 306 305 305 305 305 305 304 303 302 301 300 299 298 298 297 296 297 297 296 296 296 295 295 295 295
300 297 294 289 291 291 289 295 296 296 299 298 294 299 301 300 301 303 304 305 305 305 305 305 304 303 302 302 299 298 297 297 296 296 295 296 295 295 294 294 294 294 294 295
297 296 293 290 287 285 293 297 297 297 299 300 299 300 301 301 304 304 307 306 305 305 305 305 304 302 302 299 298 297 296 295 295 294 294 294 294 293 293 293 293 293 294 293
298 295 289 290 287 291 293 293 293 293 294 300 299 300 300 302 302 304 306 307 307 307 307 306 304 300 298 297 296 295 294 294 293 293 293 293 293 293 293 292 292 292 292 292
296 296 296 288 289 287 293 296 300 299 291 299 300 300 300 301 298 300 306 306 306 307 307 303 298 297 294 296 295 294 293 292 291 292 293 293 293 293 292 292 292 292 292 291
293 293 291 290 290 292 296 296 300 289 292 301 302 302 302 300 303 304 306 306 307 306 302 297 294 293 294 294 294 292 292 291 292 293 293 292 292 292 292 292 292 291 291 290
293 292 290 289 288 286 297 299 294 300 303 302 303 304 304 305 303 303 304 303 301 298 294 294 293 293 293 293 292 291 290 292 293 293 292 291 292 291 290 291 291 290 290 288
292 297 296 295 296 299 301 303 304 304 303 304 304 305 305 304 302 301 301 299 296 294 293 295 295 292 292 292 292 289 291 292 292 291 291 291 291 290 291 290 289 289 288 287
297 297 296 294 298 299 301 303 304 304 303 304 305 305 305 304 304 300 296 294 293 292 292 291 292 291 290 290 290 291 291 291 290 290 290 290 290 290 290 289 288 287 287 285
298 298 296 296 299 300 301 301 303 304 306 305 306 305 305 305 302 297 294 294 292 289 290 292 290 290 289 290 290 291 290 291 289 289 289 290 290 290 289 289 288 287 287 286
298 297 297 296 298 299 300 304 305 303 304 305 304 300 301 302 297 296 292 290 289 289 291 290 289 288 288 289 289 290 290 289 288 288 288 289 289 289 288 288 286 285 284 284

GFSCGP_sfc_thetae_042.txt.gz
Theta_e
308 302 299 301 303 302 300 298 297 300 303 301 300 301 303 308 310 311 312 312 312 313 316 320 322 324 327 331 328 328 325 325 323 321 318 317 315 314 314 313 314 316 316 313
304 298 303 304 304 302 300 298 298 300 302 300 300 299 304 306 308 312 313 313 313 314 315 321 323 325 328 329 330 327 326 325 325 323 321 320 317 314 314 314 316 317 314 311
300 301 306 303 301 299 299 299 299 298 301 301 300 297 301 305 308 311 313 316 316 316 317 320 323 325 328 329 328 327 326 325 326 322 324 322 318 316 315 314 314 314 313 311
302 305 304 302 300 301 297 304 301 300 298 292 301 291 299 302 304 308 310 312 315 317 320 321 323 325 328 329 328 329 328 327 327 326 320 317 314 312 313 313 314 312 312 311
300 301 301 301 301 304 299 305 302 301 298 298 296 293 298 303 301 306 311 313 315 317 319 320 323 326 326 327 328 329 328 325 324 321 320 317 316 315 314 314 313 312 312 311
302 308 305 304 305 305 306 303 302 301 299 291 295 294 295 299 302 305 310 313 315 318 319 322 325 327 325 328 328 327 324 322 320 320 320 318 317 314 312 312 310 310 308 306
301 301 306 307 302 305 303 299 293 287 288 290 298 295 298 303 307 309 309 312 315 318 320 322 322 323 323 323 325 324 321 318 319 319 319 318 315 312 308 308 307 305 304 304
295 293 302 306 302 299 300 299 292 285 285 291 299 292 298 307 309 310 312 313 317 319 321 319 321 320 320 322 321 320 318 316 317 319 317 316 312 309 308 309 306 303 302 301
295 295 304 306 305 305 300 297 302 295 298 293 293 296 305 306 306 309 310 313 315 317 317 317 318 318 318 318 319 318 317 316 317 316 313 311 309 308 306 304 304 302 301 300
301 293 302 304 306 305 301 303 296 297 287 285 290 293 295 301 303 307 310 312 314 316 316 316 315 316 316 318 318 320 318 315 315 312 310 309 308 306 305 304 303 300 299 299
302 297 298 303 300 297 300 298 298 297 297 290 288 291 301 301 304 305 309 313 315 315 315 315 314 316 317 318 318 318 317 313 311 310 309 307 305 304 303 302 300 299 298 298
305 302 297 298 304 306 303 300 300 296 291 296 295 292 304 304 305 307 308 312 315 316 316 315 315 316 316 316 317 316 315 311 310 308 306 305 304 303 302 301 299 298 297 298
306 300 293 294 300 303 299 300 300 300 301 294 291 292 304 304 303 306 307 310 313 315 315 315 315 315 315 315 315 314 312 309 307 304 303 303 303 301 301 299 298 298 297 296
307 301 296 291 294 300 298 299 300 299 295 294 293 295 299 302 302 304 306 308 310 313 314 314 314 314 315 315 313 312 309 307 305 304 303 301 302 301 299 298 297 297 297 296
305 296 298 298 299 300 299 299 299 297 298 294 296 296 299 302 303 304 308 307 307 308 311 312 314 314 314 313 312 309 307 305 305 303 301 300 301 300 299 298 297 297 296 296
306 298 300 297 300 299 296 298 298 298 298 297 298 297 304 305 305 304 305 304 305 307 310 312 314 314 313 312 309 308 305 305 304 301 300 300 299 299 297 296 297 296 296 295
304 302 298 293 296 294 289 296 297 298 300 299 295 300 304 303 303 304 305 305 305 307 308 311 312 312 312 310 308 305 305 304 301 299 299 298 298 297 296 296 295 294 294 294
304 302 300 294 289 285 295 301 299 296 297 299 300 300 301 302 304 305 306 306 307 309 308 310 311 312 312 309 307 306 303 300 298 298 297 297 296 295 295 294 294 294 294 293
307 302 294 290 290 293 296 298 296 295 295 300 298 300 301 303 304 304 307 308 307 308 309 310 311 311 310 308 304 301 299 298 296 295 295 294 294 294 293 293 293 293 292 291
301 305 298 293 289 284 297 299 302 300 292 301 301 301 301 302 297 301 307 308 307 308 309 309 310 310 306 302 300 298 295 295 294 294 293 294 294 293 292 292 292 292 292 291
295 296 291 292 291 295 300 301 302 291 295 303 303 303 303 301 305 307 308 307 309 308 309 310 307 303 300 300 298 296 294 293 294 294 294 293 293 292 292 292 291 290 290 289
294 294 291 296 288 286 301 300 294 302 305 304 304 305 305 307 307 308 307 306 307 306 303 302 299 296 295 296 295 292 292 293 294 293 293 292 292 291 291 291 290 290 289 287
296 300 299 298 297 304 304 302 305 306 304 305 305 305 306 305 305 306 306 306 304 300 299 298 295 293 293 293 292 290 291 293 293 292 290 290 291 291 291 290 289 288 288 284
302 304 301 299 300 301 303 305 306 306 306 306 307 307 307 305 306 306 303 301 296 295 294 294 293 292 291 291 291 292 292 291 290 289 290 290 290 290 290 290 289 287 285 284
302 302 299 299 301 302 304 305 305 306 307 306 307 304 302 304 303 300 297 294 293 292 292 292 291 290 290 291 291 292 291 291 289 289 289 289 289 289 289 290 289 285 286 285
303 301 300 299 302 303 301 302 303 301 300 301 301 298 297 297 294 293 291 291 290 290 290 289 290 290 291 291 291 291 291 290 289 288 288 287 287 287 287 287 286 288 286 286

GFSCGP_sfc_thetae_045.txt.gz
Theta_e
306 296 293 296 299 300 297 295 293 296 300 297 298 297 300 303 307 306 307 307 306 307 313 317 318 322 324 325 323 321 319 319 319 315 313 311 309 309 308 308 310 311 311 308
300 295 302 303 303 300 298 296 296 298 299 296 294 295 299 303 305 307 306 304 304 306 311 313 313 323 324 323 322 321 319 319 319 317 314 313 309 308 308 308 309 311 310 307
297 299 305 303 301 299 298 296 296 296 299 297 294 291 295 300 303 308 309 309 309 308 311 314 316 323 323 323 322 321 321 320 321 320 316 314 310 308 307 307 308 308 308 307
300 304 302 301 299 300 295 302 301 298 295 288 296 285 294 297 301 305 308 308 309 310 314 316 316 320 323 322 323 323 323 321 322 321 317 312 308 307 307 308 308 306 307 306
298 300 300 299 300 302 297 302 301 300 297 295 293 288 292 298 297 301 302 306 309 311 315 316 317 321 324 323 323 323 323 322 322 322 317 313 308 308 309 309 308 307 308 307
299 304 302 301 304 303 304 301 300 298 295 286 293 292 291 295 299 303 306 307 308 310 315 317 320 323 324 324 324 323 323 322 320 317 313 311 310 309 309 310 309 308 307 304
298 299 304 305 298 302 300 295 287 284 284 284 296 292 293 300 303 304 304 306 307 311 312 317 320 320 321 321 322 322 322 317 315 312 311 311 307 306 305 306 305 303 300 298
291 290 299 304 300 297 297 296 286 282 283 285 296 290 294 303 304 306 307 306 308 311 315 318 320 319 320 321 320 320 317 316 314 312 311 308 305 303 303 303 302 301 300 299
293 293 304 304 305 301 298 293 300 291 289 283 288 293 299 302 302 304 305 307 309 311 312 314 316 317 317 315 314 314 314 312 312 311 307 304 303 303 301 301 302 300 299 298
299 292 300 303 305 302 299 301 290 290 281 279 286 288 291 297 301 304 304 307 309 311 311 312 312 313 313 313 313 312 311 310 310 306 305 303 303 301 302 300 300 299 298 297
300 295 295 300 299 295 296 294 295 293 290 282 279 285 295 298 300 302 304 308 309 309 310 309 309 312 312 312 312 312 310 310 307 305 303 302 300 302 303 301 299 298 296 296
301 296 290 295 301 303 299 296 296 284 286 287 283 285 297 298 301 302 303 309 310 311 310 309 308 310 310 311 312 311 308 308 306 305 303 302 303 303 301 300 297 297 296 295
301 293 286 291 296 300 295 297 297 296 292 287 280 285 298 298 297 301 300 305 310 310 309 309 308 310 310 311 314 313 309 307 304 303 303 304 303 302 299 299 298 295 294 293
303 298 292 285 290 294 293 296 296 294 284 286 287 291 295 296 296 298 299 300 305 310 311 309 309 310 312 313 313 312 306 304 303 302 302 301 301 300 298 296 296 294 294 293
300 292 294 294 297 297 296 295 296 295 294 288 291 293 296 296 296 297 299 300 301 303 307 307 308 308 309 310 309 308 305 303 303 302 301 300 301 298 297 296 295 295 294 294
301 292 293 291 297 295 291 294 294 294 294 293 293 292 298 297 298 298 299 299 300 301 303 307 309 310 309 309 305 305 302 302 303 301 299 298 298 296 296 295 295 294 294 293
298 294 288 285 291 290 283 291 293 294 295 293 288 293 297 296 298 298 298 300 300 301 302 306 307 308 308 307 305 302 302 303 301 298 297 297 297 296 295 294 293 292 291 291
297 294 288 283 283 275 291 296 295 293 294 294 294 294 296 296 298 299 300 299 300 302 303 304 305 305 304 304 302 302 300 298 297 295 295 294 294 294 293 292 292 291 292 291
303 292 286 281 281 288 292 294 294 291 290 296 294 295 296 297 298 299 302 302 301 301 302 303 304 302 300 299 298 297 296 295 295 294 293 293 293 292 292 291 291 291 290 290
299 297 285 283 279 275 290 295 299 296 285 297 297 296 298 297 289 295 301 303 302 302 301 300 297 296 295 294 294 294 293 292 291 292 292 293 293 292 291 291 290 290 290 290
284 285 282 278 278 285 297 298 299 283 286 298 298 298 297 295 298 300 302 302 300 297 294 293 292 292 292 293 293 291 292 291 292 293 293 293 293 292 291 290 289 289 288 287
287 284 280 284 283 281 298 296 290 295 298 299 298 298 298 299 301 302 301 297 296 292 292 291 290 289 290 291 291 290 289 292 292 292 292 292 291 290 291 289 288 288 287 285
288 293 288 290 288 298 298 299 301 301 299 299 300 301 302 301 301 299 293 292 292 291 291 291 290 289 290 290 291 289 290 292 292 291 290 289 290 290 290 287 286 285 285 282
296 300 293 291 296 297 301 302 303 303 301 300 299 298 300 298 295 292 291 291 290 290 289 290 290 290 289 290 291 290 290 290 288 287 287 288 287 287 287 287 286 284 280 279
295 296 295 293 298 299 299 300 300 300 300 296 295 294 294 293 292 291 290 289 290 290 290 290 289 288 288 290 290 290 289 289 287 287 287 286 286 285 285 286 285 282 282 281
297 296 288 287 297 296 294 296 297 295 295 295 293 291 292 291 289 290 289 290 289 288 289 288 288 288 288 289 287 288 288 287 286 285 284 282 282 282 283 283 283 285 285 286

GFSCGP_sfc_thetae_048.txt.gz
Theta_e
304 296 292 296 297 299 297 294 293 295 299 298 299 296 298 309 312 310 309 308 308 313 317 317 317 318 318 322 322 320 318 316 316 314 311 310 309 309 308 308 309 310 309 308
298 293 301 302 302 300 297 294 294 296 299 297 294 294 297 306 310 311 310 308 308 309 313 315 316 317 321 321 321 319 318 317 316 315 312 312 309 308 307 307 308 309 306 305
295 298 303 302 298 297 295 294 294 295 296 294 291 289 293 300 305 309 311 311 309 307 311 313 316 319 320 319 319 318 318 317 317 316 313 309 307 306 304 304 305 308 306 305
298 302 301 299 298 298 293 300 299 297 292 286 292 282 291 296 299 305 306 306 306 307 312 313 317 319 320 320 320 319 318 318 318 317 313 309 306 305 305 305 306 306 305 305
296 298 298 297 298 301 295 299 299 298 293 291 291 287 290 294 294 301 305 305 305 308 310 314 319 320 321 321 320 320 319 318 319 318 315 311 306 306 306 306 306 304 304 304
297 302 300 299 303 302 302 297 298 296 293 285 291 289 288 292 296 299 304 305 306 306 310 313 320 321 321 321 320 320 320 319 320 319 315 312 308 306 306 305 304 303 302 301
296 297 302 304 299 300 298 292 284 282 282 283 294 289 291 297 299 301 302 302 305 308 311 312 318 320 320 320 320 320 320 320 320 318 315 311 308 307 307 307 305 300 299 299
289 287 299 303 298 295 297 293 284 280 281 284 293 287 293 300 301 303 304 301 306 308 312 314 318 320 320 321 321 321 320 319 317 314 311 308 306 305 305 304 303 301 299 298
290 292 301 302 303 301 296 292 297 289 286 282 288 290 297 300 301 302 301 303 304 307 312 315 317 319 320 320 320 320 321 317 313 312 309 304 302 302 301 301 301 300 299 298
295 290 299 303 303 301 297 299 290 290 281 280 284 286 289 296 299 301 301 302 307 309 312 314 316 316 318 317 315 312 314 312 312 309 307 305 305 304 302 301 300 299 298 296
297 293 293 299 297 295 294 292 293 291 287 282 279 284 292 297 300 301 302 305 308 308 310 312 313 314 315 314 310 309 310 311 308 305 305 303 302 304 304 301 300 297 298 297
299 295 288 293 300 301 298 294 295 284 284 285 281 284 295 298 300 302 303 307 308 310 309 311 312 312 312 312 311 309 308 306 304 303 302 302 303 304 302 300 299 299 297 296
299 292 285 290 295 298 295 296 295 294 288 285 280 284 296 296 296 300 301 304 308 309 308 309 310 311 312 312 311 309 308 306 304 303 302 303 304 302 301 299 298 298 295 293
301 294 290 285 289 292 290 295 294 291 282 285 285 289 294 296 295 296 298 300 306 308 309 308 308 310 311 311 312 310 307 306 304 303 302 303 303 301 298 298 294 293 293 292
298 291 292 293 294 295 293 293 293 291 291 286 289 290 294 295 294 294 296 298 301 305 307 307 306 306 307 309 308 306 304 303 303 303 302 302 302 298 297 295 294 293 293 292
298 290 291 290 294 293 290 291 291 292 292 292 291 290 294 295 296 296 296 298 298 300 303 305 307 307 308 308 305 304 303 302 303 302 301 300 297 297 296 294 293 294 293 292
295 292 286 284 288 288 283 290 291 291 292 292 287 291 293 294 295 295 296 298 298 300 302 306 306 307 307 306 304 302 301 302 298 298 297 297 296 295 294 293 293 291 291 291
293 291 285 281 282 276 291 296 294 291 291 292 292 292 295 295 296 297 297 297 298 299 301 302 303 303 301 300 299 298 297 296 295 293 293 294 294 293 293 292 292 291 292 290
299 290 284 280 280 286 291 292 291 290 289 293 293 294 294 297 297 297 300 299 298 299 296 295 295 295 296 296 296 294 293 292 292 292 292 292 292 292 292 292 291 291 289 289
296 292 286 281 278 276 288 293 296 295 284 295 296 296 296 295 288 293 298 295 292 292 292 291 292 292 291 291 292 291 291 291 290 291 291 292 293 293 292 291 289 289 288 287
284 284 281 276 277 283 293 296 297 283 285 296 297 296 295 294 295 297 293 292 292 291 290 291 290 289 290 292 292 290 290 289 292 294 294 294 293 291 289 288 287 287 286 285
286 283 279 281 277 279 298 295 289 291 296 297 297 296 297 297 296 294 292 290 290 289 289 290 289 290 291 291 291 290 290 292 293 293 292 290 289 289 289 286 286 285 284 283
287 289 286 288 286 295 298 297 298 299 297 297 298 299 299 294 291 291 289 289 289 289 289 290 289 289 290 291 290 288 289 290 291 290 288 287 287 287 287 285 284 283 282 280
294 299 292 291 295 296 298 299 299 298 294 294 296 296 295 291 291 289 289 289 289 290 290 291 290 288 288 289 289 289 289 289 287 286 285 285 285 285 285 284 284 282 278 277
294 295 292 292 295 296 296 296 295 294 294 293 293 293 292 291 289 289 288 289 289 289 289 289 288 288 288 288 287 287 287 287 286 285 285 284 284 283 283 284 284 283 282 281
295 293 288 286 296 293 292 294 295 293 292 292 290 289 290 290 288 288 287 288 288 288 288 288 288 287 286 286 286 286 286 286 284 283 283 282 281 281 282 282 283 285 285 285